[[{"header":{"parameterUnit":"m.s-1","parameterCategory":1,"la1":30.2991,"la2":30.254,"lo1":-89.0895,"lo2":-89.0444,"dy":0.0017,"dx":0.0017,"nx":28,"ny":28,"refTime":"2024-10-18T09:00:00:Z","depth":0,"parameterNumber":2,"parameterNumberName":"U-component_of_WINDS"},"data":[0,0,0,0,0,0,0,0,0,0,0,0,0,0,0,0,0,0,0,0,0,0,0,0,0,0,0,0,0,0,0,0,0,0,0,0,0,0,0,0,0,0,0,0,0,0,0,0,0,0,0,0,0,0,0,0,0,0,-2.2303,-2.2304,0,-2.2423,-2.2424,-2.2425,-2.2393,-2.2391,-2.2389,-2.2386,-2.2509,-2.2514,-2.2519,0,0,0,0,0,0,0,0,0,0,0,0,0,-2.2045,-2.205,-2.2303,-2.2304,-2.2306,-2.2422,-2.2424,-2.2426,-2.2394,-2.2391,-2.2388,-2.2385,-2.2507,-2.2513,-2.252,0,0,0,0,0,0,0,0,0,0,0,0,0,-2.216,-2.2052,-2.2302,-2.2304,-2.2305,-2.2422,-2.2424,-2.2426,-2.2394,-2.2391,-2.2387,-2.2384,-2.2505,-2.2513,-2.2521,-2.2643,0,0,-2.2546,-2.2549,0,0,0,0,0,0,0,0,-2.2154,-2.217,-2.2302,-2.2304,-2.2306,-2.2389,-2.2378,-2.2499,-2.2395,-2.2361,-2.2386,-2.2382,-2.2472,-2.2482,-2.2513,-2.2649,-2.2654,-2.2547,-2.2552,-2.2555,-2.2557,0,0,0,0,0,0,0,-2.2146,-2.2164,-2.235,-2.2304,-2.2306,-2.2298,-2.2311,-2.2401,-2.2435,-2.2363,-2.2361,-2.2376,-2.2472,-2.2505,-2.2515,-2.2656,-2.2546,-2.2554,-2.2559,-2.2562,-2.29,-2.2904,0,0,0,0,0,0,-2.2137,-2.2158,-2.2346,-2.2354,-2.2219,-2.2306,-2.232,-2.2366,-2.2434,-2.2441,-2.2379,-2.2374,-2.2493,-2.2506,-2.252,-2.2669,-2.2555,-2.2563,-2.2567,-2.2896,-2.2901,-2.2905,0,0,0,0,0,0,-2.2131,-2.2154,-2.2341,-2.2255,-2.2279,-2.2314,-2.2367,-2.237,-2.2403,-2.2446,-2.2451,-2.2406,-2.249,-2.2508,-2.2613,-2.2673,-2.2566,-2.2574,-2.2891,-2.2897,-2.2903,-2.2967,0,0,0,0,0,0,-2.2124,-2.2152,-2.2199,-2.2257,-2.2283,-2.2433,-2.237,-2.2375,-2.2418,-2.2412,-2.2473,-2.2479,-2.2489,-2.2601,-2.2621,-2.2682,-2.258,-2.2886,-2.2894,-2.2901,-2.296,-2.2975,-2.2988,0,0,0,0,0,-2.2115,-2.2212,-2.2202,-2.2225,-2.2343,-2.2437,-2.2452,-2.2461,-2.2423,-2.247,-2.2497,-2.2478,-2.2662,-2.2612,-2.2635,-2.2699,-2.2882,-2.2892,-2.29,-2.2954,-2.2972,-2.2987,0,0,0,0,0,0,-2.216,-2.222,-2.2209,-2.2328,-2.2377,-2.2431,-2.2492,-2.248,-2.2541,-2.2534,-2.2542,-2.2556,-2.2664,-2.2691,-2.2634,-2.2821,-2.2767,-2.2781,-2.28,-2.2817,-2.2831,-2.2822,-2.2587,0,0,0,0,0,-2.2184,-2.2255,-2.2303,-2.2403,-2.2429,-2.2456,-2.2497,-2.25,-2.2552,-2.2573,-2.2608,-2.2659,-2.2728,-2.2774,-2.284,-2.2963,-2.2977,-2.3019,-2.3032,-2.3043,-2.3056,-2.3124,-2.3144,-2.2935,-2.2935,-2.2935,0,0,-2.2234,-2.2275,-2.232,-2.2414,-2.2453,-2.2527,-2.2474,-2.2554,-2.2609,-2.2585,-2.2687,-2.2714,-2.2771,-2.2886,-2.2939,-2.2913,-2.3116,-2.3055,-2.3063,-2.307,-2.3135,-2.3155,-2.3173,-2.2941,-2.294,-2.2939,0,0,-2.2363,-2.2401,-2.249,-2.253,-2.259,-2.2607,-2.2628,-2.2684,-2.2702,-2.2804,-2.2787,-2.2852,-2.2972,-2.3014,-2.3051,-2.3196,-2.3181,-2.3217,-2.3289,-2.3356,-2.3372,-2.3387,-2.344,-2.3459,-2.3229,-2.3229,-2.3229,0,-2.2418,-2.2529,-2.2536,-2.2619,-2.2661,-2.2642,-2.2732,-2.277,-2.2848,-2.2878,-2.2847,-2.2997,-2.3035,-2.316,-2.3195,-2.3225,-2.325,-2.3211,-2.3369,-2.3384,-2.3398,-2.3449,-2.3468,-2.3234,-2.3233,-2.3233,-2.3232,0,-2.2594,-2.2671,-2.2735,-2.2812,-2.2861,-2.2946,-2.2967,-2.3015,-2.3013,-2.3034,-2.3139,-2.3183,-2.3258,-2.3287,-2.3286,-2.3413,-2.3395,-2.3367,-2.3313,-2.3422,-2.347,-2.3489,-2.324,-2.3238,-2.3237,-2.3236,0,0,-2.2756,-2.2836,-2.286,-2.2895,-2.2959,-2.3019,-2.3103,-2.3177,-2.322,-2.3274,-2.3345,-2.3447,-2.3422,-2.3464,-2.3467,-2.3525,-2.3639,-2.349,-2.3491,-2.3517,-2.3782,-2.3804,-2.3827,-2.3628,-2.3632,-2.3635,-2.3778,0,-2.2892,-2.3042,-2.3051,-2.3186,-2.3258,-2.3241,-2.3315,-2.3362,-2.3384,-2.3448,-2.3471,-2.3543,-2.3504,-2.3529,-2.3586,-2.3613,-2.3692,-2.3602,-2.3695,-2.3699,-2.3683,-2.3851,-2.3875,-2.4008,-2.3796,-2.38,-2.3802,0,-2.3071,-2.3132,-2.3275,-2.333,-2.336,-2.3427,-2.3496,-2.3557,-2.361,-2.3621,-2.3669,-2.3664,-2.375,-2.3692,-2.3812,-2.3751,-2.3789,-2.3808,-2.3813,-2.3824,-2.3758,-2.3868,-2.405,-2.4071,-2.3831,-2.3829,-2.3827,0,-2.3177,-2.3294,-2.3395,-2.3426,-2.3492,-2.3539,-2.3569,-2.3619,-2.3663,-2.3723,-2.3752,-2.3821,-2.3859,-2.3912,-2.3926,-2.3882,-2.4047,-2.3989,-2.4059,-2.4059,-2.4096,-2.4094,-2.4289,-2.4118,-2.4118,-2.4117,-2.4117,0,-2.3329,-2.3418,-2.3444,-2.3506,-2.3605,-2.3614,-2.3711,-2.3738,-2.3783,-2.385,-2.3838,-2.3902,-2.3915,-2.3982,-2.3993,-2.4091,-2.4108,-2.412,-2.4122,-2.4122,-2.4121,-2.4148,-2.414,-2.4123,-2.4121,-2.412,-2.4119,0,-2.3465,-2.3486,-2.3595,-2.3649,-2.3665,-2.3735,-2.3781,-2.3841,-2.3861,-2.3946,-2.3966,-2.3997,-2.4075,-2.4093,-2.4185,-2.4192,-2.4309,-2.4302,-2.4292,-2.4292,-2.4362,-2.4355,-2.4583,-2.4614,-2.4421,-2.4423,-2.4424,0,-2.3562,-2.3629,-2.3691,-2.3735,-2.3767,-2.3839,-2.3884,-2.3895,-2.3943,-2.4009,-2.4061,-2.4137,-2.4198,-2.4322,-2.4353,-2.4423,-2.4418,-2.4493,-2.4429,-2.4427,-2.4421,-2.4418,-2.4425,-2.4506,-2.4508,-2.4509,-2.4511,0,-2.3731,-2.3738,-2.3804,-2.3874,-2.3928,-2.3983,-2.4036,-2.4073,-2.4092,-2.4146,-2.4225,-2.4272,-2.4366,-2.4442,-2.4513,-2.4543,-2.4531,-2.453,-2.4551,-2.4552,-2.4544,-2.4551,-2.4327,-2.4526,-2.4524,-2.4523,-2.4522,-2.4522,-2.3851,-2.3911,-2.3964,-2.4038,-2.4079,-2.4128,-2.4188,-2.4215,-2.4281,-2.4359,-2.4361,-2.4447,-2.4499,-2.4593,-2.4628,-2.4695,-2.4672,-2.4701,-2.4709,-2.4716,-2.4723,-2.4532,-2.4708,-2.4707,-2.4707,-2.4707,-2.4706,0,-2.4022,-2.4055,-2.4122,-2.4197,-2.4255,-2.4238,-2.4296,-2.4346,-2.4422,-2.4471,-2.4532,-2.4623,-2.4697,-2.4733,-2.4806,-2.4853,-2.4849,-2.4872,-2.4869,-2.4877,-2.4739,-2.4715,-2.4874,-2.4874,-2.4874,-2.4874,-2.4874,-2.4874,-2.4117,-2.4218,-2.4231,-2.4352,-2.4385,-2.447,-2.4504,-2.455,-2.459,-2.4692,-2.4753,-2.4777,-2.4821,-2.4897,-2.4964,-2.4972,-2.5,-2.5027,-2.5033,-2.4903,-2.4886,-2.487,-2.4848,-2.5032,-2.5032,-2.5165,-2.5166,-2.5167]},{"header":{"parameterUnit":"m.s-1","parameterCategory":1,"la1":30.2991,"la2":30.254,"lo1":-89.0895,"lo2":-89.0444,"dy":0.0017,"dx":0.0017,"nx":28,"ny":28,"refTime":"2024-10-18T09:00:00:Z","depth":0,"parameterNumber":3,"parameterNumberName":"V-component_of_WINDS"},"data":[0,0,0,0,0,0,0,0,0,0,0,0,0,0,0,0,0,0,0,0,0,0,0,0,0,0,0,0,0,0,0,0,0,0,0,0,0,0,0,0,0,0,0,0,0,0,0,0,0,0,0,0,0,0,0,0,0,0,-4.7244,-4.7245,0,-4.733,-4.7331,-4.7332,-4.7275,-4.7273,-4.727,-4.7267,-4.735,-4.7355,-4.7359,0,0,0,0,0,0,0,0,0,0,0,0,0,-4.7024,-4.7028,-4.7244,-4.7245,-4.7246,-4.733,-4.7331,-4.7332,-4.7276,-4.7272,-4.7269,-4.7266,-4.7349,-4.7354,-4.736,0,0,0,0,0,0,0,0,0,0,0,0,0,-4.7116,-4.703,-4.7244,-4.7228,-4.7228,-4.733,-4.7331,-4.7333,-4.7276,-4.7272,-4.7268,-4.7265,-4.7347,-4.7353,-4.736,-4.7481,0,0,-4.7381,-4.7384,0,0,0,0,0,0,0,0,-4.711,-4.7124,-4.7229,-4.7229,-4.7229,-4.7288,-4.7284,-4.7382,-4.7277,-4.7258,-4.7267,-4.7263,-4.7332,-4.734,-4.7365,-4.7485,-4.7488,-4.7382,-4.7386,-4.7389,-4.7391,0,0,0,0,0,0,0,-4.7104,-4.712,-4.7278,-4.7231,-4.7231,-4.7215,-4.7223,-4.7302,-4.7315,-4.7259,-4.7255,-4.7266,-4.7331,-4.7358,-4.7366,-4.749,-4.7382,-4.7388,-4.7392,-4.7395,-4.7711,-4.7715,0,0,0,0,0,0,-4.71,-4.7115,-4.7275,-4.728,-4.7159,-4.7222,-4.7231,-4.7273,-4.7315,-4.7317,-4.727,-4.7263,-4.7348,-4.7358,-4.7369,-4.7512,-4.7389,-4.7396,-4.74,-4.7707,-4.7712,-4.7717,0,0,0,0,0,0,-4.7095,-4.7115,-4.7272,-4.7197,-4.7215,-4.723,-4.7277,-4.7277,-4.7303,-4.7323,-4.7324,-4.7295,-4.7345,-4.7359,-4.7454,-4.7514,-4.7399,-4.7405,-4.7702,-4.7709,-4.7714,-4.78,0,0,0,0,0,0,-4.7089,-4.7114,-4.7161,-4.7198,-4.722,-4.7357,-4.728,-4.7281,-4.7316,-4.7309,-4.7347,-4.7349,-4.7343,-4.7444,-4.746,-4.7521,-4.7411,-4.7697,-4.7705,-4.7712,-4.7792,-4.7808,-4.7823,0,0,0,0,0,-4.7082,-4.7181,-4.7164,-4.7184,-4.728,-4.7361,-4.7373,-4.7366,-4.7321,-4.7368,-4.738,-4.7348,-4.7505,-4.7454,-4.7472,-4.7536,-4.7693,-4.7703,-4.7712,-4.7785,-4.7805,-4.7822,0,0,0,0,0,0,-4.7149,-4.7186,-4.7167,-4.7282,-4.7319,-4.7351,-4.741,-4.7388,-4.7437,-4.7428,-4.7415,-4.7424,-4.7523,-4.7539,-4.7481,-4.7654,-4.7591,-4.7605,-4.764,-4.766,-4.7675,-4.7669,-4.7416,0,0,0,0,0,-4.7178,-4.7242,-4.727,-4.7368,-4.7388,-4.7396,-4.7431,-4.7422,-4.746,-4.7474,-4.7493,-4.7529,-4.7586,-4.7624,-4.7677,-4.7794,-4.78,-4.7846,-4.7862,-4.7875,-4.7886,-4.7947,-4.7968,-4.7748,-4.7748,-4.7748,0,0,-4.7236,-4.7264,-4.7306,-4.7382,-4.741,-4.7475,-4.741,-4.7482,-4.7529,-4.7485,-4.7575,-4.7591,-4.7629,-4.7735,-4.7782,-4.7751,-4.7948,-4.7887,-4.7897,-4.7902,-4.7959,-4.798,-4.7999,-4.7755,-4.7753,-4.7752,0,0,-4.7377,-4.7405,-4.749,-4.7519,-4.7563,-4.7567,-4.7588,-4.7624,-4.7632,-4.7724,-4.7691,-4.7746,-4.7845,-4.7874,-4.7901,-4.8052,-4.8023,-4.807,-4.815,-4.821,-4.8227,-4.8242,-4.8295,-4.8314,-4.8081,-4.8082,-4.8082,0,-4.7444,-4.7543,-4.7536,-4.7611,-4.7644,-4.7608,-4.7693,-4.7721,-4.7779,-4.7802,-4.7767,-4.789,-4.7913,-4.8024,-4.8061,-4.8085,-4.8106,-4.8065,-4.8226,-4.8241,-4.8255,-4.8305,-4.8325,-4.8087,-4.8086,-4.8086,-4.8085,0,-4.7623,-4.7692,-4.7755,-4.7814,-4.7854,-4.7933,-4.7935,-4.7977,-4.7965,-4.7972,-4.8064,-4.8091,-4.8149,-4.8175,-4.8163,-4.8284,-4.8264,-4.8228,-4.8164,-4.8281,-4.8328,-4.8347,-4.8094,-4.8092,-4.8091,-4.809,0,0,-4.7809,-4.7862,-4.7885,-4.7911,-4.7956,-4.8008,-4.8084,-4.8142,-4.8178,-4.8218,-4.8281,-4.8365,-4.8332,-4.8363,-4.8354,-4.8406,-4.8522,-4.8363,-4.8364,-4.8391,-4.8655,-4.8682,-4.8704,-4.8504,-4.8507,-4.851,-4.8652,0,-4.7951,-4.8087,-4.8082,-4.8207,-4.827,-4.8236,-4.8302,-4.8336,-4.8345,-4.8397,-4.8406,-4.8466,-4.8418,-4.8436,-4.8487,-4.8497,-4.8575,-4.8487,-4.8559,-4.8562,-4.8551,-4.8729,-4.8757,-4.889,-4.867,-4.8673,-4.8675,0,-4.8136,-4.8185,-4.8317,-4.8352,-4.8378,-4.8438,-4.849,-4.8541,-4.8577,-4.858,-4.8615,-4.8597,-4.8671,-4.8607,-4.8708,-4.8649,-4.8678,-4.8687,-4.8692,-4.8698,-4.8626,-4.8739,-4.8932,-4.8952,-4.8704,-4.8702,-4.87,0,-4.8257,-4.8355,-4.8447,-4.847,-4.8513,-4.8556,-4.8575,-4.8608,-4.8643,-4.8688,-4.871,-4.8762,-4.8791,-4.8831,-4.8826,-4.878,-4.8929,-4.8864,-4.8932,-4.8932,-4.8965,-4.8962,-4.9165,-4.8985,-4.8985,-4.8984,-4.8984,0,-4.8416,-4.8498,-4.8502,-4.8558,-4.8648,-4.864,-4.8729,-4.8743,-4.8773,-4.8829,-4.8803,-4.8856,-4.8848,-4.8901,-4.8897,-4.8981,-4.8994,-4.8997,-4.8995,-4.8999,-4.8999,-4.9018,-4.9008,-4.8989,-4.8988,-4.8987,-4.8986,0,-4.8567,-4.8573,-4.867,-4.8703,-4.8713,-4.8778,-4.8805,-4.8857,-4.8863,-4.8936,-4.8952,-4.8961,-4.9022,-4.9022,-4.9091,-4.9088,-4.9191,-4.9179,-4.918,-4.9177,-4.9244,-4.9237,-4.9465,-4.9494,-4.9296,-4.9298,-4.9299,0,-4.8668,-4.873,-4.877,-4.8807,-4.883,-4.889,-4.8926,-4.8919,-4.8957,-4.9003,-4.9049,-4.9108,-4.9154,-4.9252,-4.9264,-4.9316,-4.9304,-4.938,-4.9312,-4.9314,-4.9304,-4.93,-4.9306,-4.9394,-4.9396,-4.9398,-4.9399,0,-4.8846,-4.8846,-4.89,-4.8955,-4.8999,-4.9041,-4.908,-4.9111,-4.9109,-4.9153,-4.9216,-4.9252,-4.9322,-4.938,-4.943,-4.9447,-4.9423,-4.9421,-4.9439,-4.9444,-4.9441,-4.9442,-4.9215,-4.9415,-4.9414,-4.9413,-4.9412,-4.9411,-4.8974,-4.9028,-4.9064,-4.9125,-4.9154,-4.9191,-4.9241,-4.9254,-4.9307,-4.9366,-4.9358,-4.9427,-4.946,-4.9525,-4.9547,-4.9599,-4.9572,-4.9599,-4.9606,-4.9612,-4.9619,-4.9433,-4.9608,-4.9608,-4.9608,-4.9607,-4.9607,0,-4.915,-4.9172,-4.9228,-4.9284,-4.9331,-4.9306,-4.9347,-4.9387,-4.945,-4.9483,-4.953,-4.9601,-4.9656,-4.9673,-4.9726,-4.9765,-4.9754,-4.9779,-4.9775,-4.9779,-4.9641,-4.9619,-4.9786,-4.9786,-4.9786,-4.9786,-4.9786,-4.9786,-4.9248,-4.9337,-4.9341,-4.9443,-4.9463,-4.9533,-4.9558,-4.9591,-4.9618,-4.9699,-4.9746,-4.9757,-4.9783,-4.9838,-4.9887,-4.989,-4.991,-4.9939,-4.9937,-4.9807,-4.9789,-4.9772,-4.9752,-4.9944,-4.9944,-5.0071,-5.0072,-5.0073]}]]